Showing default

CENTAURI-8, 62714

Orbit data source: Space-Track

CENTAURI-8, 62714 is a payload satellite owned by Fleet Space (AU) in SSO that was launched on Tue, 14 Jan 2025 UTC via an FALCON 9 launch vehicle from the Air Force Western Test Range (AFWTR). Payload-class satellites include a variety of spacecraft equipped with specific instruments for various scientific and technological missions. These include communications satellites like Starlink; space stations such as the ISS; scientific satellites like the Hubble; Earth observation satellites from companies like Planet Labs, Umbra, and HawkEye 360; GPS; miniature CubeSats for education and research; and military/defense satellites.

Loading next visibility...
Identifier
62714, 2025-009DK
Orbit
SSO
Country
Flag of AUAU / AUS
Related business
Manufacturer
Terran Orbital
Mission
Operational Commercial Communications
Bus & Motor
CUBESAT 12U, Unknown motor
Mass
~25 kg wet, ~25 kg dry
Launch date (UTC)
2025-01-14 (1 year ago)
Launch vehicle
FALCON 9
Launch site
Air Force Western Test Range (AFWTR)
Object type
Payload
Rocket body
Debris
Shape & HBR
Box + 2 Pan, 0.5 m
Radar Cross Section
0.222 m², Medium (>0.1 m² and < 1m²)

Expand to show TLE details & history
Last TLE update: 6 hours ago

TLE from 6 hours ago
0 CENTAURI-8
1 62714U 25009DK  26122.45475362  .00003777  00000-0  32916-3 0  9993
2 62714  97.7063 203.1819 0000930  34.1400 325.9882 14.97476800 70631
Epoch: 2026-05-02T10:54Z
TLE epoch observation values (Epoch: 2026-05-02T10:54:50.712Z)
Latitude
-0.00001°
Longitude
179.09818°
Altitude
577.211 km
Speed
7.572 km/s
True Right ascension
13h 32m 43s
True Declination
0° 00' 00"
Sunlit
Object was in full shadow at epoch
Visualization orbit readout
Latitude
Unknown
Longitude
Unknown
Altitude
Unknown
Speed
Unknown
Apparent Right ascension
Unknown
Apparent Declination
Unknown
Sunlit
N/A
Visualization observer readout
Local Sidereal Time
00:37:47
Azimuth
Unknown
Elevation
Unknown
Doppler factor
Unknown
Orbital elements
Apogee altitude
572.351 km
Perigee altitude
571.058 km
Semi-major axis
6,949.842 km
Eccentricity
0.00009
Inclination
97.7063°
RAAN
203.1819°
Arg. of periapsis
34.14°
True anomaly
325.98224°
Mean anomaly
325.9882°
Eccentric anomaly
325.98522°
Mean motion
3.74611 °/min
Orbital period
96.1 mins
BSTAR
0.00032916
Loading maneuver chart data...
Computing Atmospheric mass density...
Loading historical data...
Loading historical data...
Loading historical data...
Loading historical data...
Loading historical data...
Loading historical data...
Loading historical data...

Documentation

Showing up to 5 results
|